Regional Weather Roundup
Issued by NWS Kansas City/Pleasant Hill, MO

Home | Current Version | Previous Version | Graphics & Text | Print | Product List | Glossary Off
Versions: 1 2 3 4 5 6 7 8 9 10 11 12 13 14 15 16 17 18 19 20 21 22 23 24 25 26 27 28 29 30 31 32 33 34 35 36 37 38 39 40 41 42 43 44 45 46 47 48 49 50

000
ASUS43 KEAX 041910
RWREAX

WEATHER ROUNDUP FOR EASTERN KANSAS AND NORTHWEST MISSOURI
NATIONAL WEATHER SERVICE KANSAS CITY/PLEASANT HILL MO
200 PM CDT TUE AUG 04 2015

KSZ040-057-103>105-MOZ028-029-037-043-042000-
...KANSAS CITY METROPOLITAN AREA...

CITY           SKY/WX    TMP DP  RH WIND       PRES   REMARKS
K.C. INTL      CLOUDY    82  71  69 E14       29.98F
K.C. DOWNTOWN  CLOUDY    82  71  69 E12       29.96F
LEES SUMMIT    CLOUDY    80  70  71 E13       29.99F
OLATHE - IXD   CLOUDY    86  68  54 E7        29.97F
OLATHE - OJC   CLOUDY    83  72  69 NE15G21   29.96F
LAWRENCE       CLOUDY    86  74  67 E8        29.95F HX  94

$$

MOZ001>008-011>017-020>025-030>033-038>040-044>046-053-054-042000-
...NORTHERN AND CENTRAL MISSOURI...

CITY           SKY/WX    TMP DP  RH WIND       PRES   REMARKS
ST. JOSEPH     CLOUDY    81  70  69 SE13      29.97F
MOSBY          CLOUDY    79  68  69 E12G17    29.99F
WARRENSBURG    CLOUDY    79  70  73 NE13      30.00S
WHITEMAN AFB   PTSUNNY   80  71  74 NE13      29.99S
CLINTON        CLOUDY    88  70  55 CALM      29.99F HX  92
SEDALIA        CLOUDY    82  71  69 NE15      30.02R
WARSAW         NOT AVBL
CHILLICOTHE      N/A     79  67  66 E6        30.00F
KIRKSVILLE     CLOUDY    72  66  81 SE10      30.01F

$$

MOZ041-047>049-056>058-063>065-088>090-097-042000-
...EASTERN AND SOUTHERN MISSOURI...

CITY           SKY/WX    TMP DP  RH WIND       PRES   REMARKS
ST. LOUIS INTL PTSUNNY   91  69  48 VRB6      29.99S HX  96
SPIRIT OF STL  PTSUNNY   89  71  55 W5        29.98R HX  95
COLUMBIA       MOSUNNY   86  71  60 N16       30.02R HX  91
JEFFERSON CITY MOSUNNY   88  68  51 N8        29.98S HX  91
ROLLA          PTSUNNY   89  68  49 VRB6      30.00S HX  93
OSAGE BEACH    CLOUDY    88  68  51 SW5       30.01S HX  91
SPRINGFIELD    CLOUDY    88  66  48 W13       30.01S HX  90
BRANSON        CLOUDY    88  68  51 S5        30.03S HX  91
JOPLIN         CLOUDY    85  69  58 SW8       30.01S
WEST PLAINS    PTSUNNY   88  66  48 SW9       30.04S HX  90

$$

IAZ060-094-KSZ022-034>040-054-083-096-NEZ052-066-093-042000-
...KANSAS...SOUTHEAST NEBRASKA AND IOWA...

CITY           SKY/WX    TMP DP  RH WIND       PRES   REMARKS
TOPEKA         PTSUNNY   84  72  67 E9        29.94F
MANHATTAN      PTSUNNY   88  71  57 E9G18     29.91F HX  94
EMPORIA        CLOUDY    81  68  64 S15       29.99R
CHANUTE        LGT RAIN  80  70  71 SW10      30.00S
WICHITA        CLOUDY    79  69  71 SE13      29.97F
OMAHA          CLOUDY    73  65  75 SE10      29.95S
LINCOLN        PTSUNNY   83  67  58 S17G23    29.95F
FALLS CITY     PTSUNNY   80  71  74 SE10      29.96F
LAMONI         CLOUDY    76  66  71 CALM      30.00F
DES MOINES     CLOUDY    77  59  53 E6        29.99F

$$



USA.gov is the U.S. government's official web portal to all federal, state and local government web resources and services.